CW3517 Weather Reports


time (UTC)temp
C
wind
direction
speed
KPH
gust
KPH
rain 1hr
cm
rain 24hr
cm
rain mn
cm
humidity
%
barometer
mb
20260508033003 10 93 3.2 4.8 0.00 0.00 0.00 86 1013.9
20260508032003 10 89 3.2 6.4 0.00 0.00 0.00 86 1014.0
20260508031218 10 93 3.2 6.4 0.00 0.00 0.00 86 1014.1
20260508030005 10 104 3.2 9.7 0.00 0.00 0.00 86 1014.2
20260508025003 10 125 1.6 8.0 0.00 0.00 0.00 85 1014.2
20260508024003 10 123 3.2 6.4 0.00 0.00 0.00 84 1014.2
20260508023003 10 126 4.8 11.3 0.00 0.00 0.00 85 1014.3
20260508022004 10 113 3.2 9.7 0.00 0.00 0.00 86 1014.3
20260508021003 10 87 3.2 6.4 0.00 0.00 0.00 86 1014.2
20260508020003 10 0 0.0 1.6 0.00 0.00 0.00 85 1014.3
20260508015003 10 126 1.6 6.4 0.00 0.00 0.00 86 1014.3
20260508014003 10 116 3.2 6.4 0.00 0.00 0.00 86 1014.3
20260508013003 10 0 0.0 4.8 0.00 0.00 0.00 86 1014.3
20260508012217 10 124 1.6 4.8 0.00 0.00 0.00 86 1014.3
20260508011003 10 0 0.0 0.0 0.00 0.00 0.00 87 1014.5
20260508010003 10 0 0.0 0.0 0.00 0.00 0.00 87 1014.5
20260508005003 10 0 0.0 0.0 0.00 0.00 0.00 87 1014.5
20260508004003 10 0 0.0 0.0 0.00 0.00 0.00 86 1014.5
20260508003003 10 0 0.0 3.2 0.00 0.00 0.00 85 1014.6
20260508002216 10 0 0.0 3.2 0.00 0.00 0.00 85 1014.5
20260508001003 10 0 0.0 0.0 0.00 0.00 0.00 85 1014.7
20260508000004 10 0 0.0 0.0 0.00 0.00 0.00 84 1014.7
20260507235003 10 137 1.6 4.8 0.00 0.00 0.00 83 1014.7
20260507234003 10 140 1.6 11.3 0.00 0.00 0.00 80 1014.8
20260507233003 10 0 0.0 0.0 0.00 0.00 0.00 78 1014.7
20260507232003 10 0 0.0 0.0 0.00 0.00 0.00 77 1014.8
20260507231003 10 0 0.0 0.0 0.00 0.00 0.00 78 1014.7
20260507230003 10 0 0.0 4.8 0.00 0.00 0.00 76 1014.8
20260507225218 10 0 0.0 0.0 0.00 0.00 0.00 77 1014.9
20260507224003 10 0 0.0 0.0 0.00 0.00 0.00 75 1014.9
20260507223218 10 0 0.0 3.2 0.00 0.00 0.00 74 1014.9
20260507222004 10 0 0.0 1.6 0.00 0.00 0.00 74 1014.8
20260507221003 10 0 0.0 3.2 0.00 0.00 0.00 73 1014.9
20260507220218 10 0 0.0 0.0 0.00 0.00 0.00 74 1014.9
20260507215218 11 0 0.0 0.0 0.00 0.00 0.00 73 1015.0
20260507214218 11 0 0.0 0.0 0.00 0.00 0.00 72 1014.9
20260507213003 11 0 0.0 0.0 0.00 0.00 0.00 72 1015.0
20260507212003 11 0 0.0 0.0 0.00 0.00 0.00 74 1015.0
20260507211003 11 0 0.0 0.0 0.00 0.00 0.00 72 1014.9
20260507210003 11 0 0.0 0.0 0.00 0.00 0.00 70 1014.9
20260507205003 11 0 0.0 0.0 0.00 0.00 0.00 71 1014.8
20260507204003 11 0 0.0 0.0 0.00 0.00 0.00 71 1014.8
20260507203003 11 0 0.0 4.8 0.00 0.00 0.00 71 1014.7
20260507202003 11 138 3.2 4.8 0.00 0.00 0.00 71 1014.6
20260507201003 11 0 0.0 3.2 0.00 0.00 0.00 72 1014.4
20260507200003 11 0 0.0 0.0 0.00 0.00 0.00 74 1014.4
20260507195003 11 0 0.0 0.0 0.00 0.00 0.00 73 1014.3
20260507194003 11 0 0.0 4.8 0.00 0.00 0.00 70 1014.2
20260507193003 12 0 0.0 0.0 0.00 0.00 0.00 69 1014.2
20260507192003 12 143 1.6 4.8 0.00 0.00 0.00 68 1014.2
20260507191003 12 124 3.2 9.7 0.00 0.00 0.00 67 1014.2
20260507190005 12 125 1.6 4.8 0.00 0.00 0.00 67 1014.1
20260507185003 13 134 3.2 9.7 0.00 0.00 0.00 67 1014.1
20260507184003 13 118 1.6 6.4 0.00 0.00 0.00 66 1014.1
20260507183003 13 126 1.6 4.8 0.00 0.00 0.00 66 1014.0
20260507182003 13 139 3.2 6.4 0.00 0.00 0.00 67 1014.0
20260507181004 13 144 4.8 12.9 0.00 0.00 0.00 66 1014.0
20260507180218 13 148 4.8 9.7 0.00 0.00 0.00 64 1014.1
20260507175003 13 153 4.8 11.3 0.00 0.00 0.00 62 1014.1
20260507174003 13 164 3.2 9.7 0.00 0.00 0.00 61 1014.1
20260507173003 13 171 3.2 9.7 0.00 0.00 0.00 60 1014.1
20260507172003 13 161 4.8 11.3 0.00 0.00 0.00 58 1014.1
20260507171218 14 156 6.4 12.9 0.00 0.00 0.00 57 1014.1
20260507170003 15 161 6.4 16.1 0.00 0.00 0.00 55 1014.1
20260507165004 15 184 6.4 14.5 0.00 0.00 0.00 55 1014.0
20260507164003 15 182 4.8 12.9 0.00 0.00 0.00 56 1014.0
20260507163003 15 177 8.0 24.1 0.00 0.00 0.00 55 1014.1
20260507162218 16 162 6.4 19.3 0.00 0.00 0.00 52 1014.1
20260507161003 16 162 8.0 22.5 0.00 0.00 0.00 54 1014.1
20260507160003 16 162 11.3 20.9 0.00 0.00 0.00 50 1014.1
20260507155217 16 146 12.9 24.1 0.00 0.00 0.00 49 1014.2
20260507154003 17 166 8.0 24.1 0.00 0.00 0.00 49 1014.2
20260507153003 17 153 12.9 22.5 0.00 0.00 0.00 49 1014.2
20260507152003 16 154 8.0 24.1 0.00 0.00 0.00 55 1014.2
20260507151217 16 159 6.4 16.1 0.00 0.00 0.00 55 1014.2
20260507150003 16 168 8.0 16.1 0.00 0.00 0.00 54 1014.3
20260507145003 16 166 8.0 20.9 0.00 0.00 0.00 53 1014.4
20260507144003 16 173 6.4 19.3 0.00 0.00 0.00 54 1014.4
20260507143003 16 168 11.3 20.9 0.00 0.00 0.00 54 1014.6
20260507142003 17 176 8.0 24.1 0.00 0.00 0.00 54 1014.6
20260507141003 17 163 11.3 22.5 0.00 0.00 0.00 54 1014.8
20260507140003 16 177 11.3 20.9 0.00 0.00 0.00 58 1014.7
20260507135003 16 163 8.0 24.1 0.00 0.00 0.00 55 1014.7
20260507134004 16 152 12.9 24.1 0.00 0.00 0.00 56 1014.7
20260507133219 16 158 12.9 24.1 0.00 0.00 0.00 52 1014.7
20260507132003 16 154 11.3 25.7 0.00 0.00 0.00 59 1014.7
20260507131003 16 165 12.9 20.9 0.00 0.00 0.00 56 1014.7
20260507130003 16 170 6.4 12.9 0.00 0.00 0.00 64 1014.8
20260507125003 15 189 6.4 14.5 0.00 0.00 0.00 68 1014.8
20260507124003 14 173 8.0 19.3 0.00 0.00 0.00 64 1014.8
20260507123003 13 163 8.0 16.1 0.00 0.00 0.00 67 1014.9
20260507122003 13 178 6.4 12.9 0.00 0.00 0.00 67 1015.0
20260507121003 13 151 11.3 20.9 0.00 0.00 0.00 68 1015.0
20260507120003 14 155 8.0 22.5 0.00 0.00 0.00 67 1015.0
20260507115003 15 169 8.0 16.1 0.00 0.00 0.00 71 1015.0
20260507114003 15 180 6.4 16.1 0.00 0.00 0.00 69 1015.0
20260507113003 15 180 6.4 20.9 0.00 0.00 0.00 68 1015.0
20260507112004 16 154 11.3 22.5 0.00 0.00 0.00 70 1015.0
20260507111003 16 170 11.3 20.9 0.00 0.00 0.00 65 1015.0
20260507110003 16 163 12.9 25.7 0.00 0.00 0.00 67 1015.0
20260507105003 16 170 12.9 22.5 0.00 0.00 0.00 69 1015.0
20260507104003 16 155 14.5 29.0 0.00 0.00 0.00 64 1015.0
20260507103003 16 170 11.3 20.9 0.00 0.00 0.00 65 1015.1
20260507102217 16 193 8.0 19.3 0.00 0.00 0.00 64 1015.0
20260507101003 15 146 8.0 22.5 0.00 0.00 0.00 71 1015.1
20260507100003 15 147 11.3 22.5 0.00 0.00 0.00 68 1015.2
20260507095003 15 186 4.8 14.5 0.00 0.00 0.00 71 1015.1
20260507094003 14 186 6.4 16.1 0.00 0.00 0.00 71 1015.0
20260507093003 14 205 6.4 14.5 0.00 0.00 0.00 74 1015.0
20260507092003 14 192 6.4 14.5 0.00 0.00 0.00 74 1015.0
20260507091217 14 196 6.4 14.5 0.00 0.00 0.00 74 1015.0
20260507090005 13 153 8.0 19.3 0.00 0.00 0.00 76 1015.0
20260507085217 13 162 6.4 19.3 0.00 0.00 0.00 78 1015.0
20260507084217 13 171 6.4 19.3 0.00 0.00 0.00 77 1015.0
20260507083003 13 132 11.3 19.3 0.00 0.00 0.00 77 1015.1
20260507082003 12 154 8.0 16.1 0.00 0.00 0.00 83 1015.1
20260507081003 12 160 4.8 12.9 0.00 0.00 0.00 84 1015.1
20260507080003 12 157 3.2 9.7 0.00 0.00 0.00 83 1015.1
20260507075003 11 147 3.2 6.4 0.00 0.00 0.00 86 1015.1
20260507074216 11 146 3.2 6.4 0.00 0.00 0.00 87 1015.1
20260507073003 10 143 1.6 4.8 0.00 0.00 0.00 87 1015.0
20260507072003 10 141 1.6 4.8 0.00 0.00 0.00 87 1014.9
20260507071003 10 92 1.6 3.2 0.00 0.00 0.00 88 1014.8
20260507070005 9 0 0.0 3.2 0.00 0.00 0.00 90 1014.8
20260507065003 8 0 0.0 0.0 0.00 0.00 0.00 90 1014.8
20260507064003 8 0 0.0 0.0 0.00 0.00 0.00 90 1014.7
20260507063003 8 0 0.0 1.6 0.00 0.00 0.00 91 1014.6
20260507062004 8 0 0.0 1.6 0.00 0.00 0.00 91 1014.6
20260507061003 8 0 0.0 3.2 0.00 0.00 0.00 92 1014.5
20260507060003 7 56 1.6 4.8 0.00 0.00 0.00 93 1014.5
20260507055003 7 0 0.0 3.2 0.00 0.00 0.00 93 1014.5
20260507054003 7 0 0.0 0.0 0.00 0.00 0.00 93 1014.4
20260507053005 7 0 0.0 3.2 0.00 0.00 0.00 93 1014.4
20260507052003 7 0 0.0 3.2 0.00 0.00 0.00 94 1014.4
20260507051217 7 0 0.0 0.0 0.00 0.00 0.00 94 1014.4
20260507050003 7 0 0.0 0.0 0.00 0.00 0.00 94 1014.4
20260507045217 7 0 0.0 0.0 0.00 0.00 0.00 93 1014.4
20260507044003 7 0 0.0 0.0 0.00 0.00 0.00 93 1014.4
20260507043004 7 0 0.0 0.0 0.00 0.00 0.00 94 1014.4
20260507042003 7 0 0.0 0.0 0.00 0.00 0.00 93 1014.3
20260507041003 7 0 0.0 0.0 0.00 0.00 0.00 93 1014.2
20260507040003 7 0 0.0 0.0 0.00 0.00 0.00 92 1014.2
20260507035003 7 0 0.0 0.0 0.00 0.00 0.00 92 1014.1
20260507034003 7 0 0.0 0.0 0.00 0.00 0.00 91 1014.2